When you browse on this site, cookies collect data to enhance your experience and personalize the content and advertising you see.
Visit our Privacy Policy to learn more. By continuing to use the site, you agree to this use of cookies and data.
  • In Lithuania
  • List of Countries
  • For 7 days
  • Water Temperature
  • Weather Map
  • Weather Widgets
  • user-avatar
    Login

    Hourly Weather Ongandyera

    Today, 14 November, Thursday

    Time Temperature Precipitation Wind Pressure Humidity
    00:00 +28°C° 0 mm 3 mps 667 mmHg 26%
    01:00 +27°C° 0 mm 1 mps 667 mmHg 30%
    02:00 +26°C° 0 mm 1 mps 667 mmHg 30%
    03:00 +26°C° 0 mm 1 mps 667 mmHg 30%
    04:00 +25°C° 0 mm 1 mps 666 mmHg 30%
    05:00 +26°C° 0 mm 1 mps 667 mmHg 28%
    06:00 +26°C° 0 mm 1 mps 668 mmHg 26%
    07:00 +27°C° 0 mm 2 mps 668 mmHg 23%
    08:00 +29°C° 0 mm 2 mps 668 mmHg 21%
    09:00 +30°C° 0 mm 2 mps 668 mmHg 20%
    10:00 +31°C° 0 mm 1 mps 668 mmHg 19%
    11:00 +32°C° 0 mm 2 mps 668 mmHg 17%
    12:00 +34°C° 0 mm 2 mps 668 mmHg 16%
    13:00 +36°C° 0 mm 3 mps 668 mmHg 15%
    14:00 +36°C° 0 mm 2 mps 667 mmHg 15%
    15:00 +36°C° 0 mm 2 mps 666 mmHg 15%
    16:00 +36°C° 0 mm 2 mps 666 mmHg 15%
    17:00 +36°C° 0 mm 2 mps 666 mmHg 17%
    18:00 +35°C° 0 mm 2 mps 666 mmHg 18%
    19:00 +33°C° 0 mm 1 mps 667 mmHg 20%
    20:00 +33°C° 0 mm 3 mps 667 mmHg 20%
    21:00 +32°C° 0 mm 5 mps 667 mmHg 20%
    22:00 +29°C° 0 mm 6 mps 667 mmHg 20%
    23:00 +29°C° 0 mm 5 mps 667 mmHg 19%

    Tomorrow, 15 November, Friday

    Time Temperature Precipitation Wind Pressure Humidity
    00:00 +28°C° 0 mm 5 mps 667 mmHg 18%
    01:00 +27°C° 0 mm 4 mps 667 mmHg 17%
    02:00 +27°C° 0 mm 3 mps 667 mmHg 19%
    03:00 +26°C° 0 mm 2 mps 666 mmHg 20%
    04:00 +25°C° 0 mm 1 mps 666 mmHg 22%
    05:00 +26°C° 0 mm 1 mps 666 mmHg 21%
    06:00 +26°C° 0 mm 2 mps 667 mmHg 20%
    07:00 +27°C° 0 mm 2 mps 667 mmHg 19%
    08:00 +28°C° 0 mm 2 mps 668 mmHg 17%
    09:00 +30°C° 0 mm 2 mps 668 mmHg 15%
    10:00 +32°C° 0 mm 1 mps 668 mmHg 13%
    11:00 +33°C° 0 mm 1 mps 667 mmHg 12%
    12:00 +34°C° 0 mm 1 mps 667 mmHg 12%
    13:00 +35°C° 0 mm 1 mps 666 mmHg 12%
    14:00 +36°C° 0 mm 1 mps 666 mmHg 12%
    15:00 +36°C° 0 mm 1 mps 665 mmHg 11%
    16:00 +36°C° 0 mm 1 mps 665 mmHg 11%
    17:00 +36°C° 0 mm 1 mps 665 mmHg 13%
    18:00 +36°C° 0 mm 2 mps 665 mmHg 14%
    19:00 +35°C° 0 mm 2 mps 665 mmHg 15%
    20:00 +34°C° 0 mm 3 mps 666 mmHg 16%
    21:00 +32°C° 0 mm 4 mps 666 mmHg 17%
    22:00 +30°C° 0 mm 5 mps 667 mmHg 18%
    23:00 +29°C° 0 mm 4 mps 666 mmHg 18%

    Day after tomorrow, 16 November, Saturday

    Time Temperature Precipitation Wind Pressure Humidity
    00:00 +28°C° 0 mm 3 mps 666 mmHg 18%
    01:00 +27°C° 0 mm 3 mps 666 mmHg 18%
    02:00 +27°C° 0 mm 2 mps 666 mmHg 19%
    03:00 +26°C° 0 mm 2 mps 666 mmHg 20%
    04:00 +25°C° 0 mm 1 mps 666 mmHg 21%
    05:00 +26°C° 0 mm 2 mps 666 mmHg 20%
    06:00 +26°C° 0 mm 2 mps 667 mmHg 19%
    07:00 +26°C° 0 mm 2 mps 667 mmHg 18%
    08:00 +28°C° 0 mm 2 mps 667 mmHg 16%
    09:00 +29°C° 0 mm 2 mps 667 mmHg 13%
    10:00 +31°C° 0 mm 2 mps 668 mmHg 11%
    11:00 +32°C° 0 mm 1 mps 667 mmHg 10%
    12:00 +33°C° 0 mm 1 mps 667 mmHg 9%
    13:00 +35°C° 0 mm 1 mps 666 mmHg 8%
    14:00 +35°C° 0 mm 1 mps 666 mmHg 8%
    15:00 +35°C° 0 mm 1 mps 665 mmHg 8%
    16:00 +35°C° 0 mm 1 mps 665 mmHg 8%
    17:00 +35°C° 0 mm 1 mps 665 mmHg 10%
    18:00 +34°C° 0 mm 1 mps 665 mmHg 11%
    19:00 +34°C° 0 mm 2 mps 665 mmHg 12%
    20:00 +33°C° 0 mm 3 mps 666 mmHg 15%
    21:00 +30°C° 0 mm 5 mps 666 mmHg 18%
    22:00 +29°C° 0 mm 7 mps 666 mmHg 20%
    23:00 +28°C° 0 mm 5 mps 666 mmHg 21%

    17 November, Sunday

    Time Temperature Precipitation Wind Pressure Humidity
    00:00 +27°C° 0 mm 4 mps 665 mmHg 22%
    01:00 +26°C° 0 mm 3 mps 665 mmHg 23%
    02:00 +25°C° 0 mm 2 mps 665 mmHg 24%
    03:00 +25°C° 0 mm 2 mps 665 mmHg 24%
    04:00 +24°C° 0 mm 2 mps 665 mmHg 25%
    05:00 +25°C° 0 mm 2 mps 665 mmHg 24%
    06:00 +25°C° 0 mm 2 mps 666 mmHg 23%
    07:00 +25°C° 0 mm 3 mps 666 mmHg 22%
    08:00 +27°C° 0 mm 3 mps 666 mmHg 18%
    09:00 +30°C° 0 mm 3 mps 666 mmHg 15%
    10:00 +33°C° 0 mm 3 mps 667 mmHg 12%
    11:00 +34°C° 0 mm 3 mps 666 mmHg 12%
    12:00 +35°C° 0 mm 3 mps 666 mmHg 12%
    13:00 +36°C° 0 mm 3 mps 665 mmHg 12%
    14:00 +37°C° 0 mm 2 mps 665 mmHg 12%
    15:00 +37°C° 0 mm 2 mps 665 mmHg 11%
    16:00 +36°C° 0 mm 1 mps 664 mmHg 11%
    17:00 +36°C° 0 mm 2 mps 665 mmHg 12%
    18:00 +35°C° 0 mm 3 mps 665 mmHg 13%
    19:00 +34°C° 0 mm 3 mps 665 mmHg 15%
    20:00 +33°C° 0 mm 4 mps 666 mmHg 17%
    21:00 +30°C° 0 mm 5 mps 666 mmHg 19%
    22:00 +29°C° 0 mm 6 mps 666 mmHg 21%
    23:00 +28°C° 0 mm 6 mps 666 mmHg 20%

    18 November, Monday

    Time Temperature Precipitation Wind Pressure Humidity
    00:00 +27°C° 0 mm 5 mps 665 mmHg 20%
    01:00 +26°C° 0 mm 5 mps 665 mmHg 20%
    02:00 +25°C° 0 mm 4 mps 665 mmHg 20%
    03:00 +25°C° 0 mm 3 mps 665 mmHg 21%
    04:00 +24°C° 0 mm 1 mps 665 mmHg 21%
    05:00 +24°C° 0 mm 2 mps 665 mmHg 20%
    06:00 +25°C° 0 mm 2 mps 666 mmHg 20%
    07:00 +25°C° 0 mm 2 mps 666 mmHg 19%
    08:00 +27°C° 0 mm 2 mps 666 mmHg 16%
    09:00 +29°C° 0 mm 2 mps 667 mmHg 13%
    10:00 +30°C° 0 mm 2 mps 667 mmHg 10%
    11:00 +32°C° 0 mm 2 mps 667 mmHg 10%
    12:00 +34°C° 0 mm 2 mps 666 mmHg 10%
    13:00 +35°C° 0 mm 2 mps 666 mmHg 10%
    14:00 +35°C° 0 mm 2 mps 666 mmHg 11%
    15:00 +35°C° 0 mm 2 mps 665 mmHg 11%
    16:00 +35°C° 0 mm 2 mps 665 mmHg 11%
    17:00 +34°C° 0 mm 2 mps 665 mmHg 13%
    18:00 +32°C° 0 mm 2 mps 665 mmHg 14%
    19:00 +32°C° 0 mm 2 mps 666 mmHg 15%
    20:00 +30°C° 0 mm 3 mps 666 mmHg 17%
    21:00 +29°C° 0 mm 4 mps 666 mmHg 19%
    22:00 +28°C° 0 mm 5 mps 667 mmHg 20%
    23:00 +27°C° 0 mm 4 mps 666 mmHg 22%

    19 November, Tuesday

    Time Temperature Precipitation Wind Pressure Humidity
    00:00 +26°C° 0 mm 4 mps 666 mmHg 23%
    01:00 +25°C° 0 mm 3 mps 666 mmHg 24%
    02:00 +24°C° 0 mm 3 mps 666 mmHg 23%
    03:00 +23°C° 0 mm 4 mps 666 mmHg 21%
    04:00 +22°C° 0 mm 4 mps 665 mmHg 20%
    05:00 +22°C° 0 mm 4 mps 666 mmHg 18%
    06:00 +24°C° 0 mm 3 mps 666 mmHg 17%
    07:00 +24°C° 0 mm 3 mps 667 mmHg 15%
    08:00 +26°C° 0 mm 2 mps 667 mmHg 13%
    09:00 +27°C° 0 mm 2 mps 667 mmHg 11%
    10:00 +29°C° 0 mm 1 mps 668 mmHg 9%
    11:00 +30°C° 0 mm 1 mps 667 mmHg 9%
    12:00 +32°C° 0 mm 1 mps 667 mmHg 9%
    13:00 +33°C° 0 mm 1 mps 666 mmHg 9%
    14:00 +34°C° 0 mm 2 mps 666 mmHg 10%
    15:00 +35°C° 0 mm 2 mps 666 mmHg 11%
    16:00 +35°C° 0 mm 3 mps 665 mmHg 12%
    17:00 +35°C° 0 mm 3 mps 665 mmHg 13%
    18:00 +34°C° 0 mm 4 mps 666 mmHg 14%
    19:00 +33°C° 0 mm 4 mps 666 mmHg 15%
    20:00 +30°C° 0 mm 5 mps 666 mmHg 16%
    21:00 +28°C° 0 mm 6 mps 666 mmHg 18%
    22:00 +27°C° 0 mm 7 mps 667 mmHg 20%
    23:00 +26°C° 0 mm 6 mps 666 mmHg 22%
    Show more